Theta_e
297 297 297 296 296 296 295 295 294 294 293 292 291 291 290 290 291 290 289 288 288 287 288 287 287 287 288 287 287 287 287 287 287 287 286 287 286 286 286 286 286 287
296 296 296 295 295 295 294 294 293 293 292 291 291 290 291 290 290 290 289 288 287 287 287 287 286 286 285 285 285 285 285 285 285 288 285 285 284 285 285 285 285 286
295 294 294 294 294 293 293 293 292 291 291 290 290 290 291 290 290 289 288 287 286 286 286 286 285 285 285 284 284 284 285 284 284 285 285 284 284 284 284 284 284 284
293 293 294 293 293 292 292 291 290 290 290 289 289 289 289 290 288 288 287 288 286 286 286 286 285 285 284 284 283 283 284 284 284 284 284 284 284 283 283 283 283 283
293 293 292 292 292 292 291 290 289 289 289 288 288 288 288 287 286 286 286 286 285 285 285 285 285 284 284 283 282 282 283 283 283 283 282 282 283 283 282 281 281 280
292 291 291 291 290 290 289 289 289 288 288 287 287 287 286 286 285 285 285 284 285 285 285 285 284 284 283 282 282 282 282 283 283 282 281 281 280 281 282 281 280 280
290 290 290 290 289 289 288 287 287 287 286 286 286 286 285 285 285 284 284 284 284 285 284 284 283 282 282 282 282 281 282 282 281 281 280 279 280 279 280 280 280 280
289 289 289 288 288 287 286 286 286 285 285 285 284 285 285 284 284 284 284 284 283 283 283 283 283 282 281 281 281 281 281 283 281 280 279 278 278 278 279 280 279 279
288 288 287 287 286 285 285 285 284 284 284 284 283 283 284 284 284 284 284 283 283 283 283 283 282 281 281 280 280 280 280 280 281 279 278 277 277 277 278 279 278 277
287 287 286 285 284 284 284 283 283 283 284 283 283 283 283 283 283 283 283 282 282 282 282 282 282 281 280 280 280 279 279 279 279 278 277 277 277 277 277 277 276 276
286 286 285 284 284 284 283 283 283 282 283 282 282 282 282 282 283 282 282 282 282 282 282 282 281 281 280 279 279 279 279 278 278 277 277 276 277 277 279 276 276 274
285 285 284 284 283 283 282 282 282 282 281 282 281 281 281 281 281 282 282 281 281 282 281 282 281 281 279 279 279 279 279 278 277 277 276 276 276 276 276 275 274 274
284 284 284 283 283 282 282 281 281 281 281 280 281 280 280 280 280 280 281 281 281 281 281 281 281 280 279 278 278 278 278 277 276 276 276 276 276 275 275 274 274 274
284 284 283 283 282 282 281 281 280 280 280 280 280 279 279 279 279 280 280 280 281 280 280 280 279 279 279 278 277 277 278 277 276 276 276 275 275 275 274 274 274 274
283 283 282 282 281 281 280 280 280 279 279 279 278 278 279 279 279 280 280 279 279 279 278 279 278 278 278 278 276 276 276 276 276 276 275 274 274 274 273 273 273 274
283 282 282 281 280 280 279 279 278 278 278 278 278 277 277 278 278 279 279 279 278 277 278 278 277 278 280 281 280 277 276 276 276 275 275 274 273 273 273 273 273 273
281 281 280 280 280 279 278 278 278 278 277 277 277 276 276 277 277 278 278 278 277 277 277 277 277 278 280 280 280 280 277 275 274 274 274 273 273 272 272 272 272 272
281 280 280 279 279 278 278 277 277 277 276 276 276 275 276 276 276 277 277 277 277 276 276 276 276 279 279 279 279 279 278 276 274 274 273 272 272 272 272 272 271 271
280 279 279 279 278 278 277 277 276 276 276 275 275 275 275 275 275 276 277 276 276 275 275 275 276 279 279 278 279 279 279 277 274 273 273 272 272 271 271 271 271 272
280 279 279 278 278 277 277 276 276 275 275 275 275 275 275 275 275 275 276 276 275 274 274 275 276 278 278 278 278 278 278 276 274 273 272 271 271 271 271 271 271 271
279 279 278 278 277 277 276 275 275 275 275 275 275 274 274 274 274 274 275 275 274 274 274 275 276 278 278 277 277 278 277 275 273 273 271 271 271 271 271 271 271 271
279 278 278 277 277 276 275 275 275 275 274 275 274 274 274 274 274 274 275 274 274 273 273 274 275 278 277 276 276 276 276 273 272 272 271 270 270 271 271 271 271 270
279 278 277 277 276 275 275 275 274 274 274 274 274 273 273 273 273 273 274 274 273 272 272 273 274 276 276 276 276 276 274 272 272 272 271 270 270 271 271 271 271 270
279 278 277 276 276 275 275 275 275 274 274 274 273 273 272 272 272 272 273 273 272 272 272 272 273 275 276 276 275 275 273 271 271 271 271 270 270 270 270 270 270 271
278 278 277 276 276 275 275 274 274 274 274 274 273 273 272 272 272 272 272 273 273 272 273 271 272 273 275 275 275 274 273 271 271 270 270 269 269 269 270 269 269 270
278 277 277 276 275 275 275 274 274 273 273 273 273 272 271 271 271 271 271 272 272 271 271 271 271 271 273 275 275 274 273 271 271 269 269 269 269 268 268 269 268 268
Wind_Speed
6 5 6 7 6 6 6 7 6 6 6 6 6 5 5 4 5 5 5 4 4 4 4 4 4 4 4 4 4 5 5 5 6 5 6 6 6 7 8 7 7 6
5 5 5 5 6 5 5 5 6 7 7 6 6 6 5 5 4 5 5 4 4 4 4 4 4 4 4 4 4 4 5 5 6 4 6 7 6 7 7 7 7 6
5 6 6 7 7 6 6 6 6 6 7 7 6 5 5 4 5 5 5 4 4 4 4 4 4 4 4 4 4 4 5 5 6 6 7 7 6 7 6 6 7 7
5 5 6 6 6 7 6 7 6 6 6 7 6 5 4 4 5 5 5 4 4 4 4 4 4 4 4 4 4 5 5 5 5 6 6 6 6 6 7 6 7 8
6 6 5 6 5 6 6 7 7 7 6 6 6 5 6 5 5 4 4 4 4 4 5 5 4 5 5 5 4 5 4 5 5 6 6 6 5 6 6 7 7 7
5 4 5 5 5 6 7 6 6 6 7 7 6 5 5 4 4 4 4 4 4 5 5 5 5 5 6 5 5 5 4 5 5 6 6 6 6 6 5 6 7 7
6 6 6 5 6 6 6 6 6 7 6 5 6 5 5 5 5 4 4 4 4 4 4 4 5 6 5 5 5 4 5 5 5 6 6 6 6 7 6 6 6 6
6 6 6 6 6 6 7 7 6 6 5 6 6 5 6 6 6 4 4 5 4 5 5 5 6 6 5 5 5 4 4 4 5 6 6 6 5 5 6 5 5 6
7 7 7 7 7 6 7 6 6 6 6 7 7 6 6 6 6 6 6 5 5 5 5 5 6 6 5 5 5 4 5 4 5 6 6 6 6 5 5 5 6 6
8 7 8 8 8 7 8 7 7 7 7 8 7 7 8 6 6 6 6 6 5 5 5 5 6 6 6 5 4 4 4 5 6 6 6 6 6 5 5 6 6 6
9 8 9 9 9 9 9 9 8 8 7 8 8 8 7 7 6 5 6 6 6 5 5 5 6 7 6 5 4 4 5 5 6 6 6 6 6 6 7 7 7 6
10 9 10 10 10 9 10 9 8 8 8 7 8 9 8 7 7 6 6 6 6 5 5 5 6 7 7 6 5 4 5 5 5 5 6 6 6 7 7 7 7 6
10 10 9 9 9 9 8 8 8 8 8 9 8 9 9 8 7 7 6 6 6 5 5 5 6 7 7 6 5 5 6 6 6 5 5 5 6 7 8 7 7 7
9 8 8 8 8 8 8 8 8 8 8 8 8 9 9 9 9 8 7 6 6 6 5 4 5 5 6 6 4 5 5 6 6 6 6 6 6 7 8 8 8 7
8 7 7 8 8 9 9 9 8 8 8 8 8 8 7 8 8 8 9 8 7 7 6 5 5 5 3 5 6 5 5 5 6 6 7 7 7 7 8 8 7 6
9 8 9 9 10 10 9 9 9 9 9 8 8 8 8 8 8 8 8 9 9 8 7 6 5 3 6 9 10 5 5 5 5 5 6 7 7 7 8 8 7 6
10 10 10 11 10 10 9 10 10 9 9 9 9 8 9 9 9 9 8 8 9 8 8 6 4 4 10 10 12 14 7 6 5 6 6 6 6 7 7 8 8 6
11 11 11 11 11 11 10 10 9 9 9 9 9 9 8 8 9 8 8 9 8 8 8 6 5 9 11 11 11 13 11 7 6 6 6 5 5 6 6 6 6 7
11 12 12 11 11 11 10 10 10 10 10 10 10 9 8 9 9 9 9 9 9 9 8 6 5 11 11 12 11 12 14 10 6 7 6 6 6 5 5 6 5 6
12 12 12 12 11 11 11 11 11 11 10 9 9 9 9 9 9 9 9 9 9 9 8 7 8 11 12 12 11 11 13 10 6 8 7 6 6 5 5 4 4 4
12 12 12 12 12 12 11 11 12 11 11 10 10 10 10 10 10 10 9 9 9 9 8 8 7 13 12 11 11 12 13 11 7 7 7 6 5 5 5 5 5 5
13 13 13 12 13 12 13 13 12 12 12 10 10 8 7 8 7 8 9 10 9 9 8 8 8 13 12 11 11 11 12 6 5 7 7 7 6 6 6 5 5 5
13 14 13 13 13 14 14 13 13 12 11 10 10 10 10 9 9 8 8 10 10 9 10 9 9 11 12 11 11 11 9 6 6 6 6 7 6 6 5 6 6 6
13 14 14 14 14 15 14 13 11 10 11 10 11 11 10 10 9 8 8 9 10 9 9 10 9 10 12 12 11 10 8 6 6 6 7 6 6 6 5 5 7 10
12 12 13 14 14 13 13 13 13 12 10 9 9 9 9 9 9 9 8 8 9 10 13 11 10 9 11 11 11 11 8 5 5 6 6 6 5 4 5 6 7 7
10 12 12 12 12 11 11 11 10 10 11 11 10 9 9 9 9 9 9 9 10 10 9 9 10 8 8 10 11 11 10 5 5 5 5 6 6 5 4 6 7 6
Wind_Direction
141 143 144 140 143 146 147 143 142 135 128 122 122 122 119 117 98 91 87 78 75 72 66 67 68 66 64 67 76 75 71 74 68 64 72 67 60 58 52 49 57 65
145 139 135 123 123 124 127 129 131 129 128 125 125 121 117 112 106 104 102 97 92 85 74 68 67 75 74 72 75 87 84 76 73 59 68 66 62 57 53 49 56 56
141 140 139 143 146 140 135 128 125 126 123 123 118 118 118 112 111 104 107 113 105 94 84 75 69 70 75 71 65 68 78 78 76 65 66 63 58 60 51 48 51 51
143 145 144 143 142 140 136 127 124 118 118 116 123 125 116 111 103 102 103 101 100 91 82 72 67 58 67 70 62 58 60 72 79 73 69 59 59 64 56 52 51 48
151 144 138 136 135 132 129 127 128 128 122 122 118 121 119 117 111 108 104 102 96 87 74 70 61 55 54 62 63 64 54 70 73 76 76 72 60 68 66 63 59 56
135 131 130 134 138 136 132 132 133 129 127 128 133 126 125 119 111 105 97 89 83 85 85 79 74 62 60 59 59 62 59 68 78 81 77 73 66 59 65 67 70 66
143 138 136 136 134 133 131 131 129 127 128 128 115 113 112 103 100 96 91 92 91 91 93 91 85 77 67 65 62 64 57 64 70 75 79 69 67 62 58 64 66 71
144 140 142 142 138 136 132 131 127 124 122 110 108 105 98 100 97 98 97 97 98 95 93 89 85 83 83 83 79 72 66 70 78 80 82 78 70 74 69 67 67 68
149 150 148 147 140 135 129 126 122 119 120 119 117 114 106 109 115 115 115 112 110 109 104 98 95 93 91 94 94 89 87 83 86 89 90 89 85 81 82 80 73 67
156 153 150 148 143 143 139 137 136 136 134 129 129 124 121 119 118 121 117 115 115 111 109 108 104 98 89 85 93 99 100 96 92 91 90 90 92 88 82 81 80 74
162 160 159 157 154 151 148 144 143 138 134 134 129 123 121 118 114 113 115 116 118 120 120 116 116 113 106 99 94 98 102 99 96 96 96 95 93 89 87 88 85 79
167 165 168 163 156 153 150 146 142 139 137 134 133 129 126 124 126 125 130 128 124 126 127 126 122 118 117 117 119 115 110 104 102 101 102 98 96 92 90 90 90 85
172 173 166 161 156 153 148 146 145 144 142 143 141 135 134 134 131 127 125 125 125 122 122 122 117 116 117 114 112 118 121 118 115 116 111 105 98 97 94 91 87 86
174 167 162 156 151 149 148 146 144 143 141 138 135 135 136 136 136 133 129 122 120 110 103 97 97 103 115 118 114 114 121 122 124 124 118 107 98 96 97 93 90 89
163 159 151 149 151 149 150 150 147 142 139 137 136 135 135 135 134 134 131 123 112 108 99 86 78 69 60 125 121 117 107 118 126 126 119 113 104 101 103 100 95 95
162 157 156 153 154 157 155 151 148 147 143 140 140 138 136 135 134 133 132 128 122 117 108 101 98 92 95 116 138 126 119 115 114 121 122 120 117 112 111 112 112 115
162 163 157 162 160 155 156 153 152 149 145 141 140 139 138 138 136 137 136 129 126 124 120 115 115 123 125 113 130 138 132 125 119 109 100 109 118 119 122 124 124 115
166 162 163 164 161 162 158 155 150 150 149 146 143 141 141 137 139 140 135 130 127 122 121 126 131 139 129 128 128 136 133 123 121 113 103 101 106 113 116 119 123 123
169 169 169 167 166 160 157 155 156 154 153 152 152 148 142 145 146 141 137 132 129 126 124 127 134 142 133 133 132 131 134 124 115 110 110 106 101 97 106 125 134 130
173 171 172 170 163 161 159 160 160 161 156 152 148 150 149 146 146 144 139 136 132 127 126 130 139 145 135 133 131 131 128 114 99 109 108 106 106 109 108 106 117 132
175 175 173 169 166 163 163 164 163 159 158 159 157 157 155 154 151 148 145 135 129 126 125 132 142 148 137 130 129 126 122 112 109 115 115 113 105 97 102 114 116 117
179 178 173 170 169 168 168 168 167 166 160 157 152 149 146 140 142 143 143 136 130 130 127 130 140 145 142 133 132 131 123 115 115 127 126 127 129 132 139 140 134 127
182 178 176 174 172 171 172 171 167 164 160 156 152 153 150 152 150 147 143 136 134 134 134 134 135 142 143 141 139 138 130 131 133 135 138 133 139 141 147 148 143 139
183 180 178 176 176 178 174 170 164 160 161 160 157 154 152 149 145 141 139 134 136 136 138 139 136 139 145 148 144 141 140 143 149 149 150 142 141 151 159 155 145 139
183 182 180 178 180 178 172 168 167 164 156 154 152 147 144 140 143 142 139 137 141 140 137 138 139 134 138 146 149 147 146 153 152 152 154 155 149 158 169 142 142 150
182 182 181 180 178 172 169 168 157 153 158 154 150 146 142 140 138 140 140 142 135 130 134 136 140 139 131 137 151 156 153 148 151 149 162 162 154 163 178 163 155 160